Regional Weather Roundup
Issued by NWS

Home | Current Version | Previous Version | Graphics & Text | Print | Product List | Glossary On
Versions: 1 2 3 4 5 6 7 8 9 10 11 12 13 14 15 16 17 18 19 20 21 22 23 24 25 26 27 28
000
ASUS45 KTFX 192310
RWRMT
MONTANA REGIONAL WEATHER ROUNDUP
NATIONAL WEATHER SERVICE GREAT FALLS MT
400 PM MST MON FEB 19 2018

NOTE: "FAIR" INDICATES FEW OR NO CLOUDS BELOW 12000 FEET WITH NO
SIGNIFICANT WEATHER AND/OR OBSTRUCTIONS TO VISIBILITY.

MTZ001>007-043-200000-
WEST OF THE DIVIDE

CITY           SKY/WX    TMP DP  RH WIND       PRES   REMARKS
KALISPELL      FAIR      11  -4  51 SW7       29.98R WCI   0
MISSOULA       CLOUDY    11  -5  48 W3        29.95S
BUTTE          CLOUDY     1 -10  60 NW9       29.74R WCI -14
MULLAN PASS    LGT SNOW   2  -2  83 CALM      29.69R FOG
ANACONDA         N/A      1 -13  51 N3        29.81R
DEER LODGE       N/A      3 -11  51 W3        29.85S
HAMILTON         N/A     10  -6  48 MISG      29.91R
PLAINS           N/A     20  -4  34 CALM      30.03R
RONAN            N/A      9  -2  61 CALM      30.00S
$$

MTZ008-052>055-200000-
SOUTHWEST MONTANA

CITY           SKY/WX    TMP DP  RH WIND       PRES   REMARKS
BOZEMAN        FAIR       3 -10  54 N3        29.87R
DILLON         FAIR      -3  -8  79 N3        29.76R
ENNIS          SUNNY      0  -9  65 NW9       29.81R WCI -16
W YELLOWSTONE  FAIR       7  -2  66 VRB3      29.52R
THREE FORKS      N/A      4 -11  50 CALM      29.89R
TWIN BRIDGES     N/A      5 -13  43 N3        29.81R
$$

MTZ009-010-012-014-046-048-049-054-200000-
EAST SLOPES AND CENTRAL MONTANA

CITY           SKY/WX    TMP DP  RH WIND       PRES   REMARKS
CUT BANK       FAIR      -2  -7  79 SW3       29.94S
GREAT FALLS    FAIR      -3  -9  75 CALM      29.98S
MALMSTROM AFB  FAIR      -4  -8  82 CALM      30.01S
HELENA         CLOUDY     4 -10  52 NW5       29.92S
AUGUSTA        FAIR      -3  -8  82 CALM      29.89S
BOWMANS CRNR   FAIR      -6 -12  77 NE5       29.88S
FAIRFIELD      SNOWSHWR  -1  -8  73 CALM      29.95S
POWER          FAIR      -3  -9  75 CALM      29.96S
RAYNESFORD     FAIR      -4 -11  73 W5        29.95S
ULM            FAIR      -4 -10  77 S5        29.99S
WHITE SULPHUR    N/A     -4 -13  65 CALM      29.80S
$$

MTZ011-013-016-021-045-047-050-051-200000-
NORTH CENTRAL MONTANA

CITY           SKY/WX    TMP DP  RH WIND       PRES   REMARKS
HAVRE          PTSUNNY   -2  -7  79 SW8       30.10S WCI -17
LEWISTOWN      CLOUDY    -4  -9  79 W9        29.92S WCI -20
N BAR RANCH    CLOUDY    -2 -11  65 E6        29.90S HAZE    WCI -14
CHINOOK          N/A      1  -6  71 CALM      30.13S
GEYSER         FAIR      -6 -12  76 SW6       29.94S WCI -19
STANFORD       FAIR      -6 -10  85 CALM      29.91R
WINIFRED       PTSUNNY   -3  -7  82 NW8       29.97F WCI -18
$$

MTZ017>020-022>027-061-062-200000-
NORTHEAST MONTANA

CITY           SKY/WX    TMP DP  RH WIND       PRES   REMARKS
GLASGOW        FAIR       1  -7  68 N5        30.11F
GLENDIVE       FLURRIES   4  -1  80 N3        30.09F
JORDAN           N/A      4  -2  76 CALM      30.06F
MALTA          MOSUNNY    0  -6  78 SW6       30.12F WCI -12
SIDNEY         FAIR       9  -2  61 CALM      30.16S
WOLF POINT     CLOUDY     4  -3  73 CALM      30.16F HAZE
PLENTYWOOD       N/A      1  -6  71 CALM      30.13R
POPLAR           N/A      1  -6  71 NW3       30.16F
SCOBEY           N/A      1 -10  60 CALM      30.07S
$$

MTZ028>42-056>058-200000-
SOUTHCENTRAL AND SOUTHEAST MONTANA

CITY           SKY/WX    TMP DP  RH WIND       PRES   REMARKS
BAKER          LGT SNOW   2  -3  80 NE8       30.02S VSB 1   WCI -12
BILLINGS       CLOUDY     3  -5  69 N7        29.96R WCI  -9
LIVINGSTON     FAIR       0  -7  72 E7        29.85R WCI -13
MILES CITY     LGT SNOW   4   0  83 NE7       30.05R FOG     WCI  -8
BIG TIMBER     SUNNY     -2 -11  65 N5        29.90S
EKALAKA          N/A     -1 -11  63 NE9       29.91F WCI -16
FORSYTH          N/A      3   0  85 CALM      30.05R
HARLOWTON      FAIR      -3 -10  72 N7        29.89R WCI -17
LAUREL           N/A      3  -6  66 N7        29.98R WCI  -9
$$

REGIONAL REPORTS...DAKOTAS

CITY           SKY/WX    TMP DP  RH WIND       PRES   REMARKS
WILLISTON      FAIR       3  -3  76 SW5       30.17R
MINOT          CLOUDY     8  -6  52 SW3       30.16R
DICKINSON      LGT SNOW   3  -3  76 NE7       30.06R VSB 3/4 WCI  -9
BEACH          LGT SNOW   3  -2  78 N6        30.08F WCI  -8
CROSBY         FAIR       1  -6  71 SW6       30.16S WCI -10
TIOGA          FAIR       1  -4  78 W5        30.13R
WATFORD CITY   FLURRIES   5  -2  72 W6        30.14R WCI  -6
BISMARCK       LGT SNOW   5  -2  72 NE10      30.17R WCI -10
GRAND FORKS    CLOUDY     6  -5  60 N17       30.23S WCI -13
FARGO          CLOUDY     8  -1  66 N23       30.14F WCI -13
BUFFALO SD       N/A      2  -4  76 NE13      29.92S WCI -15
RAPID CITY     SNOW       0  -5  79 N14       29.92F VSB 1/2 WCI -19
$$

REGIONAL REPORTS...WYOMING/IDAHO/WASHINGTON

CITY           SKY/WX    TMP DP  RH WIND       PRES   REMARKS
GILLETTE       CLOUDY     0  -6  76 N12       29.82R HAZE    WCI -17
SHERIDAN       CLOUDY     1  -4  79 NW12      29.89R HAZE    WCI -16
BUFFALO WY     LGT SNOW  -1  -7  75 N12       29.79R WCI -18
CODY           LGT SNOW  -3 -10  72 N12       29.78S WCI -21
YELLOWSTONE LA   N/A      5  -1  76 CALM      29.47R
IDAHO FALLS    FAIR      24   0  35 N14       29.63R WCI  12
SALMON         CLOUDY    19   5  54 S3        29.77R
BOISE          CLOUDY    30   5  34 NW24G31   29.82R WCI  16
SPOKANE        FAIR      19  -1  41 NW9       30.03R WCI   8
$$

REGIONAL REPORTS...ALBERTA

CITY           SKY/WX    TMP DP  RH WIND       PRES   REMARKS
CALGARY        MOSUNNY    7 -11  43 NE5       29.92S
CARDSTON         N/A      9  -6  52 S3          N/A
EDMONTON       PTSUNNY   16  -2  45 W12       29.91R WCI   3
FORT MCMURRAY  FLURRIES  16   9  73 W9        29.81S WCI   4
HIGH LEVEL     LGT SNOW   7   1  78 N12G17    29.99R DRFTSNOWWCI  -9
LETHBRIDGE     MOSUNNY    1  -9  60 W8        30.00F WCI -12
LLOYDMINSTER   MOSUNNY    7  -2  66 SW15      29.88F WCI -11
MEDICINE HAT   PTSUNNY    1  -6  71 SW15      30.07S WCI -18
MILK RIVER       N/A     -2  -8  78 W6          N/A  WCI -14
ONEFOUR          N/A     -2  -6  84 SE3         N/A
PEACE RIVER    MOSUNNY   18  -2  41 W13       29.91S WCI   4
PINCHER CREEK  SUNNY     -2  -9  71 NE3       29.91F
WATERTON GATE    N/A      5   0  78 N2          N/A
$$

REGIONAL REPORTS...SASKATCHEWAN

CITY           SKY/WX    TMP DP  RH WIND       PRES   REMARKS
CORONACH         N/A      3  -6  66 SW3         N/A
CYPRESS HILLS    N/A     -4  -9  77 SW7         N/A  WCI -18
ESTEVAN        CLOUDY     1  -6  71 W5        30.15S
MOOSE JAW        N/A      3  -4  72 W12         N/A  WCI -13
PRINCE ALBERT  MOSUNNY    5  -8  56 SW13      30.03S WCI -12
REGINA         PTSUNNY    3  -4  72 SW9       30.11S WCI -11
ROCKGLEN         N/A      0  -8  71 SW6         N/A  WCI -12
SASKATOON      MOSUNNY    3  -6  66 SW14      30.07F WCI -15
SWIFT CURRENT  SUNNY      1  -6  71 SW12      30.01S WCI -15
VAL MARIE        N/A     -2  -8  78 SW3         N/A
$$




USA.gov is the U.S. government's official web portal to all federal, state and local government web resources and services.